HDGA4: War Eagle Creek At Hindsville, AR

                                SHEF ID:       HDGA4     War Eagle Crk nr Hindsville,AR
STATION TYPE:

STAGE RIV-FLOW WTR-TEMP CONDUCT BAT-LOAD
ft cfs F umho/cm volt
Ccp-Rev Ccp-Rev Ccp-Rev Ccp-Rev Ccp-Rev
(America/Chicago)
05/27 00:00 1.68 231 75.07 ---- 12.30
05/27 01:00 1.67 229 74.71 ---- 12.30
05/27 02:00 1.66 227 74.37 ---- 12.29
05/27 03:00 1.65 225 73.98 ---- 12.28
05/27 04:00 1.64 223 73.54 ---- 12.28
05/27 05:00 1.63 220 73.09 ---- 12.27
05/27 06:00 1.62 218 72.68 ---- 12.27
05/27 07:00 1.61 216 72.32 ---- 12.27
05/27 08:00 1.61 216 72.01 ---- 12.27
05/27 09:00 1.60 214 72.09 ---- 12.26
05/27 10:00 1.59 212 72.43 ---- 12.26
05/27 11:00 1.59 212 72.82 ---- 12.27
05/27 12:00 1.59 212 73.42 ---- 12.26
05/27 13:00 1.58 210 74.43 ---- 12.25
05/27 14:00 1.58 210 75.31 ---- 12.37
05/27 15:00 1.57 207 76.28 ---- 12.40
05/27 16:00 1.57 207 76.78 ---- 12.28
05/27 17:00 1.56 205 77.23 ---- 12.40
05/27 18:00 1.55 203 77.31 ---- 12.37
05/27 19:00 1.54 201 77.18 ---- 12.35
05/27 20:00 1.53 199 76.82 ---- 12.33
05/27 21:00 1.52 197 76.28 ---- 12.31
05/27 22:00 1.51 195 75.81 ---- 12.30
05/27 23:00 1.50 193 75.40 ---- 12.28
Data processed at Tue 28May2024 04:13 GMT

Parsing this webpage?

Checkout our new Data API! CWMSDataAPI (CDA)

Timeseries IDs (TSIDs)

TSIDs used from left to right in the data table
HIND.Stage.Inst.1Hour.0.Ccp-Rev
HIND.Flow.Inst.1Hour.0.Ccp-Rev
HIND.Temp-Water.Inst.1Hour.0.Ccp-Rev
HIND.Cond.Inst.1Hour.0.Ccp-Rev
HIND.Volt-Battery Load.Inst.1Hour.0.Ccp-Rev

                            

All information presented herein is the property of the government of the United States of America and may be revised or deleted at any time without prior notice. Dissemination of this information without the expressed written consent of the Public Affairs Office, Tulsa District U.S. Army Corps of Engineers is strictly prohibited. These data are gathered electronically and, as presented, have NOT undergone any form of quality control. These data are NOT guaranteed to be valid or correct.